Farmville, Virginia, United States (23901)
Lat: 37.30N, Lon: 78.39W
Wx Zone: VAZ060
Local Info
Past Weather Observations for Today

NOTE: This archive is for the closest National Weather Service station to Farmville. Information may differ from the station used for current weather conditions.

Click here for Long-term Archive

Time Weather Temperature Dewpoint Humidity Pressure Winds Precip Visibility
21:55
Overcast
39°F / 4°C 30°F / -1°C 70% 30.27 in
(1025 mb)
NNE 3.5 mph
(NNE 6 kph)
- 10SM
21:35
Overcast
39°F / 4°C 30°F / -1°C 70% 30.27 in
(1025 mb)
NNE 3.5 mph
(NNE 6 kph)
- 10SM
21:15
Overcast
39°F / 4°C 30°F / -1°C 70% 30.27 in
(1025 mb)
NNE 4.6 mph
(NNE 7 kph)
- 10SM
20:55
Overcast
39°F / 4°C 30°F / -1°C 70% 30.27 in
(1025 mb)
NNE 4.6 mph
(NNE 7 kph)
- 10SM
20:35
Overcast
39°F / 4°C 30°F / -1°C 70% 30.27 in
(1025 mb)
NNE 5.8 mph
(NNE 9 kph)
- 10SM
20:15
Mostly Cloudy
37°F / 3°C 30°F / -1°C 75% 30.27 in
(1025 mb)
NNE 4.6 mph
(NNE 7 kph)
- 10SM
19:55
Clear
37°F / 3°C 30°F / -1°C 75% 30.27 in
(1025 mb)
NNE 3.5 mph
(NNE 6 kph)
- 10SM
19:35
Clear
37°F / 3°C 28°F / -2°C 70% 30.27 in
(1025 mb)
NE 3.5 mph
(NE 6 kph)
- 10SM
19:15
Clear
37°F / 3°C 28°F / -2°C 70% 30.27 in
(1025 mb)
NNE 4.6 mph
(NNE 7 kph)
- 10SM
18:55
Clear
39°F / 4°C 28°F / -2°C 65% 30.27 in
(1025 mb)
Calm - 10SM
18:35
Clear
39°F / 4°C 28°F / -2°C 65% 30.27 in
(1025 mb)
Calm - 10SM
18:15
Clear
39°F / 4°C 28°F / -2°C 65% 30.27 in
(1025 mb)
Calm - 10SM
17:55
Clear
39°F / 4°C 30°F / -1°C 70% 30.24 in
(1024 mb)
Calm - 10SM
17:35
Clear
41°F / 5°C 28°F / -2°C 61% 30.24 in
(1024 mb)
Calm - 10SM
17:15
Clear
41°F / 5°C 28°F / -2°C 61% 30.27 in
(1025 mb)
Calm - 10SM
16:55
Clear
43°F / 6°C 28°F / -2°C 57% 30.24 in
(1024 mb)
Calm - 10SM
16:35
Clear
46°F / 8°C 28°F / -2°C 50% 30.24 in
(1024 mb)
Calm - 10SM
16:15
Partly Cloudy
50°F / 10°C 30°F / -1°C 47% 30.24 in
(1024 mb)
Calm - 10SM
15:55
Partly Cloudy
52°F / 11°C 28°F / -2°C 41% 30.24 in
(1024 mb)
Calm - 10SM
15:35
Clear
54°F / 12°C 30°F / -1°C 41% 30.24 in
(1024 mb)
Calm - 10SM
15:15
Partly Cloudy
54°F / 12°C 30°F / -1°C 41% 30.24 in
(1024 mb)
Calm - 10SM
14:55
Clear
52°F / 11°C 30°F / -1°C 44% 30.24 in
(1024 mb)
NE 4.6 mph
(NE 7 kph)
- 10SM
14:35
Partly Cloudy
55°F / 13°C 30°F / -1°C 38% 30.24 in
(1024 mb)
NE 4.6 mph
(NE 7 kph)
- 10SM
14:15
Partly Cloudy
54°F / 12°C 30°F / -1°C 41% 30.24 in
(1024 mb)
SE 3.5 mph
(SE 6 kph)
- 10SM
13:55
Clear
52°F / 11°C 30°F / -1°C 44% 30.24 in
(1024 mb)
Calm - 10SM
13:35
Clear
54°F / 12°C 30°F / -1°C 41% 30.27 in
(1025 mb)
NE 3.5 mph
(NE 6 kph)
- 10SM
13:15
Clear
54°F / 12°C 30°F / -1°C 41% 30.27 in
(1025 mb)
NE 4.6 mph
(NE 7 kph)
- 10SM
12:55
Partly Cloudy
54°F / 12°C 30°F / -1°C 41% 30.27 in
(1025 mb)
ENE 5.8 mph
(ENE 9 kph)
- 10SM
12:35
Overcast
50°F / 10°C 30°F / -1°C 47% 30.3 in
(1026 mb)
Calm - 10SM
12:15
Overcast
48°F / 9°C 30°F / -1°C 50% 30.3 in
(1026 mb)
NE 4.6 mph
(NE 7 kph)
- 10SM
11:55
Overcast
46°F / 8°C 30°F / -1°C 53% 30.3 in
(1026 mb)
Calm - 10SM
11:35
Overcast
46°F / 8°C 30°F / -1°C 53% 30.33 in
(1027 mb)
ENE 3.5 mph
(ENE 6 kph)
- 10SM
11:15
Overcast
45°F / 7°C 32°F / 0°C 61% 30.33 in
(1027 mb)
ENE 3.5 mph
(ENE 6 kph)
- 10SM
10:55
Overcast
43°F / 6°C 30°F / -1°C 61% 30.33 in
(1027 mb)
NE 3.5 mph
(NE 6 kph)
- 10SM
10:35
Overcast
43°F / 6°C 30°F / -1°C 61% 30.33 in
(1027 mb)
NE 3.5 mph
(NE 6 kph)
- 10SM
10:15
Overcast
41°F / 5°C 30°F / -1°C 66% 30.33 in
(1027 mb)
NNE 4.6 mph
(NNE 7 kph)
- 10SM
09:55
Overcast
41°F / 5°C 32°F / 0°C 70% 30.33 in
(1027 mb)
NE 4.6 mph
(NE 7 kph)
- 10SM
09:35
Overcast
39°F / 4°C 32°F / 0°C 75% 30.33 in
(1027 mb)
NE 3.5 mph
(NE 6 kph)
- 10SM
09:15
Overcast
39°F / 4°C 32°F / 0°C 75% 30.33 in
(1027 mb)
NE 3.5 mph
(NE 6 kph)
- 10SM
08:55
Overcast
37°F / 3°C 30°F / -1°C 75% 30.3 in
(1026 mb)
Calm - 10SM
08:35
Overcast
37°F / 3°C 30°F / -1°C 75% 30.3 in
(1026 mb)
Calm - 10SM
08:15
Overcast
36°F / 2°C 30°F / -1°C 81% 30.3 in
(1026 mb)
Calm - 10SM
07:55
Overcast
36°F / 2°C 30°F / -1°C 81% 30.3 in
(1026 mb)
Calm - 10SM
07:35
Overcast
36°F / 2°C 28°F / -2°C 75% 30.3 in
(1026 mb)
Calm - 10SM
07:15
Overcast
36°F / 2°C 28°F / -2°C 75% 30.3 in
(1026 mb)
Calm - 10SM
06:55
Overcast
36°F / 2°C 30°F / -1°C 81% 30.3 in
(1026 mb)
Calm - 10SM
06:35
Overcast
36°F / 2°C 30°F / -1°C 81% 30.3 in
(1026 mb)
Calm - 10SM
06:15
Overcast
36°F / 2°C 30°F / -1°C 81% 30.27 in
(1025 mb)
Calm - 10SM
05:55
Overcast
36°F / 2°C 30°F / -1°C 81% 30.27 in
(1025 mb)
Calm - 10SM
05:35
Overcast
36°F / 2°C 28°F / -2°C 75% 30.27 in
(1025 mb)
NNE 3.5 mph
(NNE 6 kph)
- 10SM
05:15
Overcast
36°F / 2°C 28°F / -2°C 75% 30.27 in
(1025 mb)
Calm - 10SM
04:55
Overcast
36°F / 2°C 28°F / -2°C 75% 30.27 in
(1025 mb)
Calm - 10SM
04:35
Overcast
36°F / 2°C 28°F / -2°C 75% 30.27 in
(1025 mb)
Calm - 10SM
04:15
Overcast
36°F / 2°C 28°F / -2°C 75% 30.27 in
(1025 mb)
Calm - 10SM
03:55
Overcast
36°F / 2°C 28°F / -2°C 75% 30.27 in
(1025 mb)
Calm - 10SM
03:35
Overcast
36°F / 2°C 28°F / -2°C 75% 30.27 in
(1025 mb)
Calm - 10SM
03:15
Overcast
36°F / 2°C 27°F / -3°C 70% 30.27 in
(1025 mb)
Calm - 10SM
02:55
Overcast
36°F / 2°C 27°F / -3°C 70% 30.27 in
(1025 mb)
Calm - 10SM
02:35
Overcast
36°F / 2°C 28°F / -2°C 75% 30.27 in
(1025 mb)
Calm - 10SM
02:15
Overcast
36°F / 2°C 28°F / -2°C 75% 30.27 in
(1025 mb)
Calm - 10SM
01:55
Overcast
36°F / 2°C 27°F / -3°C 70% 30.27 in
(1025 mb)
Calm - 10SM
01:35
Overcast
36°F / 2°C 28°F / -2°C 75% 30.27 in
(1025 mb)
Calm - 10SM
01:15
Overcast
36°F / 2°C 28°F / -2°C 75% 30.27 in
(1025 mb)
Calm - 10SM
00:55
Overcast
37°F / 3°C 27°F / -3°C 65% 30.27 in
(1025 mb)
Calm - 10SM
00:35
Overcast
37°F / 3°C 27°F / -3°C 65% 30.27 in
(1025 mb)
Calm - 10SM
00:15
Overcast
37°F / 3°C 27°F / -3°C 65% 30.27 in
(1025 mb)
Calm - 10SM
Time Weather Temperature Dewpoint Humidity Pressure Winds Precip Visibility


Weather for websites

WeatherForYou.com, LLC is not responsible for any damages or problems caused by this service. Current weather conditions are obtained from the closest station including government and personal stations which may have varying degrees of accuracy. Weather forecasts are derived from the NOAA NDFD. Like all things, this site belongs to Jesus Christ... He just trusts me to maintain it. If you have any questions or comments email webmaster@weatherforyou.com

Copyright © 2014, WeatherForYou.com LLC. All rights reserved.